Dewpoint
54 53 54 53 54 54 53 54 55 55 55 55 56 57 57 57 58 55 52 52 51 53 53 48 46 45 43 40 40 39 31 20 12 15 24 33 30 31 32 33 38 45 47 49 50
54 53 53 53 53 53 54 54 54 55 55 55 56 57 57 57 54 49 53 55 56 55 48 43 42 42 39 38 37 35 31 25 24 30 33 33 30 30 30 32 38 47 50 50 47
53 54 53 53 53 54 55 55 55 55 55 55 56 56 54 55 46 45 50 54 56 53 48 47 45 40 37 36 34 34 27 27 31 34 33 31 30 29 29 29 33 37 48 47 46
51 53 54 54 54 54 55 54 53 52 55 55 56 55 55 52 29 44 52 54 56 53 47 44 42 38 34 33 33 30 31 32 29 28 32 30 28 27 28 28 29 41 49 47 45
51 50 54 54 54 54 54 54 54 54 54 54 54 53 52 46 46 45 57 56 55 50 44 42 38 36 31 33 31 28 30 27 27 26 26 27 27 26 26 26 34 49 49 47 46
53 51 51 54 53 52 52 52 53 55 55 55 54 50 46 40 44 47 49 52 49 47 44 44 38 36 31 29 27 29 27 25 25 25 26 27 24 22 24 28 42 48 48 48 48
53 53 51 51 52 52 51 53 54 52 50 51 49 46 41 41 36 41 42 43 41 45 42 43 40 28 28 25 27 26 25 24 23 23 25 24 26 23 22 26 39 45 45 46 46
53 53 52 49 51 49 50 51 50 50 50 50 51 42 41 42 41 35 37 33 36 45 44 41 39 33 25 26 24 23 23 21 24 24 25 24 19 22 21 21 24 28 29 33 35
53 53 52 50 48 50 50 48 49 50 49 50 46 39 32 35 33 34 34 32 33 37 41 39 30 28 24 22 21 20 19 19 19 25 25 21 15 19 19 19 18 18 19 20 24
53 52 51 50 48 47 48 51 51 50 48 48 46 35 32 31 33 34 33 34 31 32 27 26 28 22 22 23 18 19 14 18 16 23 25 20 17 19 18 17 17 18 21 22 25
54 53 51 50 49 46 47 43 39 37 40 35 35 33 32 36 37 33 32 32 29 25 27 26 21 19 19 19 18 18 13 13 22 24 21 21 21 20 19 18 16 17 18 20 26
53 52 51 50 49 47 44 41 41 40 33 37 37 34 35 36 31 33 33 29 26 25 24 25 18 27 26 23 19 18 13 13 20 22 18 13 11 13 16 19 20 19 19 24 30
53 52 49 49 48 44 39 41 43 41 31 33 34 32 32 34 30 30 32 30 24 22 22 22 27 28 22 21 18 20 13 13 14 20 20 16 8 9 22 24 27 22 21 27 32
53 51 48 46 39 42 39 45 44 39 23 22 27 28 31 30 25 31 33 28 28 24 27 26 30 22 21 22 21 14 25 20 19 12 6 14 -1 2 18 24 27 27 24 28 34
52 50 48 45 41 35 41 44 42 33 7 20 25 31 30 26 25 26 32 30 26 28 23 24 27 24 20 23 27 19 25 23 20 14 10 12 9 5 21 19 24 27 28 29 34
50 48 47 44 41 43 44 42 38 20 9 20 27 25 22 25 25 26 27 32 31 27 29 30 32 30 27 28 27 26 27 27 21 14 -1 12 10 1 10 18 22 27 29 30 32
49 47 43 43 39 45 44 37 23 12 21 16 22 24 23 21 22 23 22 22 20 16 17 21 27 31 31 21 27 22 15 4 -0 -1 -2 23 17 10 19 25 27 26 29 30 32
47 42 43 42 45 45 37 23 10 19 22 27 25 21 17 19 20 20 18 18 21 21 19 12 11 27 31 26 16 23 12 1 -8 -1 8 17 15 14 18 26 28 29 31 33 34
44 43 39 37 44 44 27 19 18 25 29 27 23 15 17 19 19 20 21 18 20 21 14 13 19 31 31 30 25 18 13 20 13 13 6 8 8 9 20 21 26 29 32 33 34
42 38 38 40 42 35 26 25 26 30 28 27 17 16 12 15 17 17 20 24 21 20 20 21 16 28 31 30 27 19 17 8 11 -4 -3 3 5 2 18 19 27 30 32 33 33
41 31 40 41 37 29 21 24 26 27 28 23 21 17 15 14 14 18 20 25 26 22 20 15 15 21 28 23 17 21 16 18 11 8 -2 -6 -3 18 23 21 26 30 31 31 30
39 26 42 39 21 28 25 28 28 25 25 25 23 19 16 16 17 19 21 26 29 27 15 16 17 12 15 24 25 22 16 16 6 1 9 3 -0 16 23 26 28 27 25 26 27
35 35 41 30 10 19 27 22 23 21 20 21 18 21 17 14 13 22 23 29 29 24 17 16 9 3 5 14 18 21 23 16 14 13 7 1 -3 21 24 24 24 24 28 29 30
28 19 28 32 28 21 18 19 15 23 20 21 17 16 15 12 17 20 20 28 29 25 27 21 12 1 -6 5 13 11 17 21 15 11 7 5 3 15 23 23 24 28 29 29 30
33 29 32 20 29 26 22 20 19 17 19 20 14 13 11 5 8 13 21 21 25 28 24 16 -2 9 11 12 16 12 9 18 18 16 7 2 5 7 21 24 26 28 27 27 28
24 28 35 30 32 30 28 24 24 23 24 22 18 18 17 9 6 6 12 15 12 25 20 21 4 18 9 24 15 11 11 12 16 19 16 14 13 13 24 27 28 27 27 27 28
39 39 34 32 28 27 28 26 26 26 27 27 25 25 24 23 27 27 24 21 18 18 17 18 14 18 17 26 25 20 24 21 14 16 14 10 12 23 25 27 27 27 27 27 29
Wind_Speed
17 18 6 3 6 7 6 7 4 6 7 5 6 7 8 7 8 7 11 8 5 5 3 4 1 3 1 2 3 4 3 9 9 8 4 9 6 3 4 8 3 2 6 1 23
17 16 10 4 4 6 4 5 5 5 7 6 6 8 8 9 5 13 11 11 10 8 2 1 3 5 3 3 3 5 6 11 5 5 5 9 9 13 6 7 1 2 5 14 23
15 16 10 8 5 5 4 1 3 6 8 8 7 9 10 10 2 9 21 20 9 5 2 2 0 3 4 3 4 6 6 5 3 3 3 8 8 3 10 8 8 11 15 19 19
14 15 12 10 9 7 4 1 3 5 5 6 7 8 12 3 6 2 5 17 15 6 2 2 2 6 5 8 4 5 4 2 2 2 3 7 6 4 6 2 3 11 22 20 22
11 14 14 12 6 5 4 6 7 2 3 7 9 11 7 4 8 6 7 17 11 6 5 5 5 5 6 6 7 4 4 3 1 3 2 3 3 3 6 1 2 17 18 21 20
8 10 10 7 5 7 7 6 8 12 14 14 11 9 4 7 5 1 6 8 7 7 6 6 5 2 2 6 10 7 4 3 2 2 3 2 2 1 5 4 10 20 20 18 18
5 6 7 7 6 7 11 9 11 14 11 9 5 2 1 10 1 2 4 4 4 6 6 6 2 1 1 5 5 10 6 2 1 1 2 1 9 9 5 11 14 16 14 13 14
5 5 5 5 6 4 7 10 10 10 9 12 7 3 5 3 1 2 6 2 3 6 3 3 5 5 2 4 5 5 4 6 2 4 1 4 13 7 9 18 16 13 11 11 11
6 5 4 6 5 7 6 2 3 4 4 1 4 1 4 1 4 4 7 4 6 5 4 4 2 1 2 8 6 4 8 7 1 6 3 7 5 4 5 13 14 11 10 10 9
8 7 4 5 4 4 7 7 6 5 4 3 4 2 1 4 3 6 4 4 3 6 4 3 2 3 3 5 17 7 4 5 6 4 4 6 17 8 5 9 12 10 9 8 8
9 7 7 4 2 1 3 2 2 1 2 4 3 3 2 1 0 3 3 3 3 2 6 2 4 7 6 5 7 6 4 3 3 0 5 10 15 17 7 10 15 12 11 11 10
10 8 7 5 2 5 4 0 4 1 6 4 8 4 3 2 4 3 6 3 3 8 6 4 7 2 3 4 5 4 3 3 1 1 3 4 16 17 11 14 17 17 13 12 10
9 8 8 5 7 7 4 1 2 3 3 8 6 2 1 3 3 3 4 2 6 5 4 9 3 1 4 5 4 3 3 5 2 2 2 7 11 9 1 3 3 6 11 12 18
10 8 3 4 3 3 2 1 1 0 2 6 2 1 1 3 4 0 2 2 4 10 8 6 3 4 6 5 2 3 0 2 6 6 5 3 7 5 2 4 2 3 10 16 16
8 7 5 5 5 3 1 2 2 2 4 6 4 0 2 2 7 1 1 3 6 6 2 2 3 5 5 2 1 3 4 4 4 4 0 0 3 7 2 7 8 7 7 13 16
5 6 1 1 2 1 1 2 2 2 4 5 4 2 2 4 2 2 2 6 4 7 11 4 2 3 2 3 4 7 5 7 6 3 6 2 5 7 5 2 0 6 9 14 14
3 6 2 2 2 4 4 2 3 6 3 3 3 3 4 3 4 3 3 4 4 7 3 3 3 3 3 5 3 3 5 0 3 4 8 1 3 13 4 1 1 9 14 13 11
0 4 4 2 1 2 2 4 8 2 2 3 3 2 3 1 3 3 3 2 5 4 6 7 5 2 5 2 4 3 2 4 5 5 3 0 8 4 1 0 3 2 8 7 9
2 2 3 1 2 2 2 7 4 1 3 6 5 2 3 2 3 3 2 3 1 1 1 6 2 2 3 1 1 3 3 3 5 2 2 4 7 8 3 1 2 2 7 9 10
2 1 2 1 6 4 4 5 3 3 1 1 3 2 2 2 2 1 4 1 0 1 0 5 5 1 1 1 4 2 7 3 1 4 5 5 7 11 2 6 2 4 10 9 5
3 1 2 1 2 9 4 2 2 3 2 2 1 1 3 1 1 1 3 1 3 2 1 3 2 2 0 6 9 5 3 3 4 3 4 3 7 5 4 6 6 6 5 4 3
2 3 1 3 5 4 4 3 6 3 4 2 1 2 2 3 2 1 2 1 3 2 1 1 4 5 1 0 0 1 4 7 5 6 3 2 10 3 1 1 9 10 9 7 8
2 1 1 3 4 4 1 1 2 4 4 4 3 3 1 3 2 2 3 2 2 1 3 2 1 3 1 1 1 4 5 4 5 2 8 6 6 1 6 9 9 13 10 10 12
2 2 5 7 3 3 3 1 1 1 1 2 2 1 1 2 4 4 3 1 2 2 3 1 3 5 5 2 5 5 9 12 9 7 8 15 9 7 10 12 10 9 10 11 13
5 1 2 3 4 5 2 1 1 0 1 0 1 2 1 1 0 2 1 1 1 2 2 2 3 2 5 6 4 4 6 14 21 11 12 7 12 8 20 16 12 10 10 11 10
2 1 1 3 0 1 1 2 2 2 1 1 1 1 1 2 3 3 4 4 3 2 2 1 1 1 3 2 6 13 16 17 22 15 19 16 30 6 6 12 12 13 11 9 9
1 1 2 2 1 1 2 2 2 2 2 2 1 1 1 0 1 2 1 1 1 2 5 2 5 2 4 3 6 15 17 22 11 10 16 22 14 10 13 17 16 13 11 10 9
Wind_Direction
355 1 17 324 305 301 300 269 272 237 225 233 236 233 219 214 156 188 227 224 194 297 271 305 208 186 150 238 167 126 154 192 197 180 210 167 146 152 95 128 83 44 150 193 145
8 13 31 24 332 319 301 230 244 246 245 240 230 225 204 181 180 224 230 249 235 263 275 269 185 160 164 212 175 155 183 206 203 194 211 179 160 156 149 145 113 110 52 132 144
10 15 22 17 12 45 57 142 227 244 239 232 228 203 187 168 198 244 221 234 234 186 205 134 264 184 167 164 185 174 200 207 208 231 200 169 148 130 150 195 199 191 160 154 160
8 15 21 23 53 44 55 55 296 235 199 190 177 174 169 111 201 292 208 214 214 141 176 161 186 163 156 173 186 186 217 183 178 293 188 171 136 148 177 208 209 178 160 162 173
359 4 20 22 39 38 33 51 62 39 140 192 180 160 140 187 260 304 342 180 173 137 188 179 169 160 178 178 154 218 180 106 66 44 73 119 133 194 220 219 159 151 162 174 183
352 356 14 19 19 26 23 50 42 77 68 80 98 117 141 203 262 3 79 121 147 163 181 183 195 202 212 190 176 177 151 114 50 67 24 203 205 175 222 147 144 162 179 186 193
332 342 348 348 358 15 44 85 92 81 62 53 71 78 114 226 100 129 160 189 190 179 170 206 209 199 182 163 141 133 136 73 146 138 118 63 256 234 189 168 168 182 189 198 210
317 326 327 313 299 356 45 80 91 101 52 5 6 112 237 237 220 238 182 229 202 194 206 237 239 271 221 149 75 116 85 167 167 167 100 150 246 250 185 178 194 200 205 208 216
318 310 310 284 267 267 278 315 53 341 311 273 346 135 253 277 246 189 162 196 179 196 221 286 211 218 76 139 112 45 181 200 225 196 138 189 264 327 193 195 204 209 213 210 203
321 305 288 273 271 275 272 279 308 284 250 263 285 315 259 197 214 150 161 171 162 155 124 137 87 143 83 150 180 159 142 198 217 195 195 215 249 282 223 216 226 228 212 208 198
314 304 300 274 263 180 124 357 339 300 332 217 258 251 126 244 343 83 147 156 115 116 132 109 146 172 152 113 132 138 134 161 232 284 207 243 263 267 246 232 240 241 222 213 192
312 304 297 270 187 147 131 133 281 163 11 350 293 301 231 168 105 67 130 130 128 132 121 105 131 145 102 124 108 117 163 228 286 158 203 312 278 267 245 236 238 236 218 200 172
324 304 295 257 146 129 175 223 314 127 206 210 229 242 178 138 113 120 157 177 124 110 124 138 127 295 123 119 130 71 192 200 208 141 39 326 286 256 221 225 266 240 208 183 177
323 307 283 163 164 164 189 129 60 108 68 12 309 23 75 129 69 184 183 158 67 145 112 95 335 139 126 112 126 195 41 170 144 162 223 3 280 282 236 244 235 245 195 179 175
329 322 303 190 142 185 120 120 111 74 61 334 346 307 91 124 143 51 115 67 124 120 142 143 79 120 117 127 90 142 96 97 94 124 88 255 261 266 332 247 232 224 193 184 185
358 343 327 131 77 124 113 96 87 52 58 347 328 16 89 43 64 129 112 68 123 75 57 81 42 50 102 84 90 136 92 59 60 72 254 232 209 273 222 236 40 207 201 197 193
350 11 53 132 201 183 137 94 15 61 316 342 10 14 88 41 67 78 57 62 121 126 107 37 16 4 51 100 58 88 107 102 235 218 237 358 236 255 272 252 299 215 201 204 201
16 79 41 57 343 171 111 70 61 277 319 327 328 0 102 84 56 60 94 100 53 98 131 159 179 47 359 66 167 113 148 184 223 212 277 20 241 258 216 68 354 343 193 175 188
173 64 89 26 26 37 88 62 150 192 319 352 320 55 21 49 123 95 73 162 237 83 149 146 117 335 52 33 73 168 181 133 104 81 293 245 277 289 187 280 343 61 157 175 199
117 64 22 141 116 65 80 116 166 211 293 169 34 17 171 165 156 155 178 143 185 120 168 185 112 32 357 103 41 82 146 132 68 243 251 276 274 238 281 218 150 145 171 189 207
98 90 326 96 66 57 61 102 174 208 185 135 96 33 51 58 69 135 179 29 20 317 4 150 110 173 75 205 183 147 170 97 124 173 223 271 252 216 273 219 174 141 126 113 81
112 35 312 115 36 52 73 351 348 355 359 315 177 114 115 54 70 103 205 220 341 315 172 44 115 146 182 153 311 218 201 173 193 216 210 202 268 338 8 66 133 120 110 79 65
60 345 348 130 65 77 342 95 73 16 14 14 351 351 329 149 155 175 188 195 341 145 170 164 46 139 32 331 324 223 200 174 117 100 212 198 258 36 121 118 128 133 115 92 78
67 31 7 50 104 81 127 99 31 148 52 5 339 2 36 49 25 179 173 197 10 64 57 50 166 200 208 171 141 195 202 192 179 204 209 224 237 212 191 170 156 136 114 92 74
32 78 139 6 17 85 41 347 131 171 267 248 108 88 152 251 177 180 165 140 38 7 78 110 240 235 269 252 228 246 224 200 211 218 217 270 230 250 207 191 170 143 128 111 92
41 100 19 134 246 324 353 163 301 301 180 169 240 255 234 238 232 241 180 209 202 161 146 43 214 57 295 18 233 258 245 231 231 235 248 263 274 198 153 149 162 165 153 127 99
80 89 104 327 131 130 239 221 208 176 216 249 206 147 241 309 71 5 358 44 305 188 177 164 156 146 252 348 321 278 247 220 211 205 214 240 247 178 185 185 172 164 159 142 129